Torna al catalogo

DELTA 1 DEB

AttivoLEO
NORAD 10338·DEBRIS·🇺🇸 United States

Lanciato Jul 14, 1977 da Cape Canaveral Space Force Station

Loading…

Prossimi Passaggi (prossime 24 ore)

TLE

AggiornatoSource: Space-Track

Epoca: Sep 14, 2026, 01:25 UTC

1 10338U 77065DM  26257.05917162  .00000871  00000-0  13972-3 0  9994
2 10338  29.0606 213.2233 0615633 196.2679 161.7277 13.84548761426088

Traccia DELTA 1 DEB in tempo reale con AllMySat

Download on the App Store